GW4063 Weather Reports


Display with metric or nautical units.
time (UTC)temp
F
wind
direction
speed
MPH
gust
MPH
rain 1hr
in
rain 24hr
in
rain mn
in
humidity
%
barometer
mb
20260504044531 54 53 21.0 35.0 0.00 0.00 0.00 43 1011.2
20260504043031 57 32 19.0 32.0 0.00 0.00 0.00 42 1010.9
20260504041529 59 12 20.0 26.0 0.00 0.00 0.00 40 1010.3
20260504040032 59 5 13.0 23.0 0.00 0.00 0.00 39 1010.1
20260504034540 59 22 11.0 21.0 0.00 0.00 0.00 38 1009.8
20260504033031 59 11 16.0 20.0 0.00 0.00 0.00 39 1009.5
20260504031528 59 35 14.0 26.0 0.00 0.00 0.00 39 1009.2
20260504030038 60 45 20.0 25.0 0.00 0.00 0.00 40 1008.8
20260504024528 60 39 17.0 23.0 0.00 0.00 0.00 40 1008.6
20260504023031 62 44 15.0 19.0 0.00 0.00 0.00 37 1008.6
20260504021528 64 25 8.0 14.0 0.00 0.00 0.00 31 1008.7
20260504020030 66 355 10.0 13.0 0.00 0.00 0.00 26 1008.6
20260504014528 68 360 13.0 18.0 0.00 0.00 0.00 25 1008.8
20260504013028 68 360 13.0 21.0 0.00 0.00 0.00 24 1008.9
20260504011530 70 322 13.0 19.0 0.00 0.00 0.00 24 1008.9
20260504010028 70 318 13.0 20.0 0.00 0.00 0.00 23 1008.9
20260504004531 71 334 12.0 24.0 0.00 0.00 0.00 23 1009.2
20260504003029 71 350 17.0 24.0 0.00 0.00 0.00 24 1009.3
20260504001529 71 360 16.0 24.0 0.00 0.00 0.00 24 1009.3
20260504000029 71 327 20.0 25.0 0.00 0.00 0.00 23 1009.5
20260503234533 71 304 17.0 30.0 0.00 0.00 0.00 24 1009.5
20260503233027 71 289 14.0 20.0 0.00 0.00 0.00 23 1009.5
20260503231543 71 319 15.0 23.0 0.00 0.00 0.00 23 1009.5
20260503230031 71 294 13.0 22.0 0.00 0.00 0.00 23 1009.6
20260503224529 71 306 18.0 30.0 0.00 0.00 0.00 23 1009.7
20260503223030 72 298 15.0 24.0 0.00 0.00 0.00 23 1009.9
20260503221529 71 323 10.0 23.0 0.00 0.00 0.00 23 1010.0
20260503220037 69 321 13.0 27.0 0.00 0.00 0.00 24 1010.2
20260503214528 70 216 14.0 19.0 0.00 0.00 0.00 24 1010.4
20260503213048 71 288 15.0 25.0 0.00 0.00 0.00 24 1010.6
20260503211532 71 288 15.0 25.0 0.00 0.00 0.00 24 1010.8
20260503210029 69 323 13.0 23.0 0.00 0.00 0.00 25 1011.0
20260503204541 70 256 13.0 28.0 0.00 0.00 0.00 25 1011.2
20260503203033 70 254 11.0 20.0 0.00 0.00 0.00 25 1011.2
20260503201528 68 331 15.0 23.0 0.00 0.00 0.00 27 1011.3
20260503200029 69 247 13.0 25.0 0.00 0.00 0.00 26 1011.6
20260503194529 69 270 12.0 20.0 0.00 0.00 0.00 26 1011.8
20260503193030 68 279 9.0 26.0 0.00 0.00 0.00 27 1012.0
20260503191528 67 283 11.0 24.0 0.00 0.00 0.00 28 1012.2
20260503190030 67 308 9.0 21.0 0.00 0.00 0.00 27 1012.5
20260503184529 66 327 15.0 24.0 0.00 0.00 0.00 27 1012.5
20260503183040 67 244 12.0 22.0 0.00 0.00 0.00 25 1012.6
20260503181530 67 289 12.0 22.0 0.00 0.00 0.00 27 1012.8
20260503180032 66 294 11.0 19.0 0.00 0.00 0.00 27 1013.1
20260503174538 65 315 14.0 23.0 0.00 0.00 0.00 28 1013.1
20260503173031 65 350 14.0 22.0 0.00 0.00 0.00 29 1013.5
20260503171533 65 343 13.0 23.0 0.00 0.00 0.00 30 1013.5
20260503081543 45 360 2.0 4.0 0.00 0.00 0.00 71 1016.2